伽利略0202星导航星座 (GSAT0202 (GALILEO 6))

导读

GALILEO 6(编号262)是欧洲空间局(ESA)于2014年8月22日发射的伽利略全球卫星导航系统卫星。作为欧盟自主建设的导航星座组成部分,它承担着全球定位、导航与授时服务任务,为民用用户提供高精度定位服务,提升了伽利略系统的全球覆盖能力与服务稳定性,推动欧洲摆脱对其他导航系统的依赖,促进全球卫星导航领域多元化发展。

Basic Information
目录编号:
40129
目录名称:
GALILEO 6 (262)
国际标识:
2014-050B
轨道中心:
EARTH
卫星名称:
伽利略0202星
卫星全名:
伽利略0202星导航星座 (GSAT0202 (GALILEO 6))
卫星状态:
在轨 (已飞行4313 天)
发射日期:
2014-08-22 UTC
国别 :
(ESA)
星等 :
--
Orbit Information
数据来源 国际轨道数据 AOE轨道数据
星历时间 2026-06-09T22:06:18+0800
3天前
查看轨道信息
2026-06-11T00:00:00+0800
2天前
查看轨道信息
半长轴 27977.383km 27977.303km
偏心率 0.1674677 0.1674998
轨道倾角 48.901° 48.901°
近地点辐角 179.828° 179.873°
升交点赤经 272.834° 272.791°
平近点角 180.281° 180.886°
近地点 16913.938km 16912.973km
远地点 26284.554km 26285.359km
周期 776.194分钟 776.191分钟
每日圈数 1.855206 1.855214
Detailed Information
平衡模式:
三轴稳定
覆盖范围:
全球
运营商:
欧盟空间计划局
运营商所在国:
法国大都会
使用方式:
暂无
Satellite Introduction
伽利略定位系统(Galileo)是一个全球导航卫星系统,于2016年投入使用由欧盟通过ESA创建,由欧盟空间计划局(EUSPA)运营。该系统有两个地面操控站,并且在高纬度地区提供比其他系统更好的定位服务。该卫星仍在工作。
2D Orbit Map
3D Orbit Map
Orbit Altitude Analysis Chart
Orbit Inclination Analysis Chart
Orbit Comprehensive Analysis Chart
View Comprehensive Chart